Date String (YYYY-MM-DD hh:mm:ss) UTC,Instrument flags,Ambient pressure (hPa),Sample flow (lpm),Bypass flow (lpm),Sample temperature (°C),Ambient temperature (°C),ASC tube jacket temperature (°C),LED temperature (°C),Box temperature (°C),Sample RH (%),Span deviation,Mass concentration (μg/m³),Mass concentration (μg/m³),Mass concentration (μg/m³)
DateTimeUTC,F1_M11,P_M11,Q1_M11,Q2_M11,T1_M11,T2_M11,T3_M11,T4_M11,T5_M11,U1_M11,ZSPAN_M11,X0_M11,X2_M11,X1_M11
2021-09-18 13:00:00,,0831.2,5.01,0.00,27.4,26.6,00.0,36.5,29.1,22.8,0001.7,0026.15,0010.21,0008.08
2021-09-18 13:01:00,,0831.2,5.01,0.00,27.3,26.6,00.0,36.5,29.1,22.8,0001.9,0025.26,0010.15,0008.07
2021-09-18 13:02:00,,0831.2,5.01,0.00,27.3,26.6,00.0,36.5,29.2,22.9,0002.2,0025.25,0010.07,0008.05
2021-09-18 13:03:00,,0831.2,5.00,0.00,27.4,26.6,00.0,36.5,29.2,23.1,0002.2,0024.75,0010.03,0008.03
2021-09-18 13:04:00,,0831.2,5.00,0.00,27.4,26.7,00.0,36.5,29.2,22.9,0002.1,0023.60,0010.03,0008.00
2021-09-18 13:05:00,,0831.2,5.00,0.00,27.4,26.6,00.0,36.5,29.2,23.0,0001.7,0022.99,0010.00,0007.98
2021-09-18 13:06:00,,0831.2,5.00,0.00,27.4,26.6,00.0,36.5,29.1,23.0,0001.5,0022.30,0009.92,0007.97
2021-09-18 13:07:00,,0831.2,5.00,0.00,27.4,26.6,00.0,36.5,29.1,23.2,0001.7,0022.30,0009.90,0007.98
2021-09-18 13:08:00,,0831.2,4.99,0.00,27.3,26.6,00.0,36.5,29.1,23.3,0001.9,0022.70,0009.95,0008.00
2021-09-18 13:09:00,,0831.2,5.01,0.00,27.3,26.5,00.0,36.5,29.1,23.3,0002.0,0021.53,0009.89,0007.99
2021-09-18 13:10:00,,0831.2,5.00,0.00,27.3,26.5,00.0,36.5,29.1,23.4,0001.8,0021.56,0009.85,0007.95
2021-09-18 13:11:00,,0831.2,5.00,0.00,27.3,26.5,00.0,36.5,29.1,23.3,0001.9,0022.18,0009.84,0007.91
2021-09-18 13:12:00,,0831.2,5.00,0.00,27.3,26.5,00.0,36.5,29.1,22.8,0001.5,0022.70,0009.83,0007.91
2021-09-18 13:13:00,,0831.2,5.00,0.00,27.3,26.5,00.0,36.5,29.0,22.5,0001.0,0022.40,0009.82,0007.91
2021-09-18 13:14:00,,0831.1,5.01,0.00,27.3,26.5,00.0,36.5,29.0,22.6,0000.8,0023.39,0009.86,0007.94
2021-09-18 13:15:00,,0831.1,5.00,0.00,27.3,26.5,00.0,36.5,29.0,22.6,0000.8,0023.71,0009.91,0007.95
2021-09-18 13:16:00,,0831.2,4.99,0.00,27.3,26.6,00.0,36.5,29.0,22.6,0001.2,0023.95,0009.84,0007.94
2021-09-18 13:17:00,,0831.2,5.01,0.00,27.3,26.6,00.0,36.5,29.0,22.4,0001.4,0024.07,0009.81,0007.93
2021-09-18 13:18:00,,0831.2,4.98,0.00,27.3,26.6,00.0,36.5,29.1,22.6,0001.3,0024.46,0009.84,0007.95
2021-09-18 13:19:00,,0831.2,4.99,0.00,27.3,26.6,00.0,36.5,29.1,23.0,0001.0,0023.81,0009.78,0007.96
2021-09-18 13:20:00,,0831.2,5.00,0.00,27.3,26.6,00.0,36.5,29.1,23.4,0001.3,0024.09,0009.82,0007.98
2021-09-18 13:21:00,,0831.2,5.00,0.00,27.3,26.6,00.0,36.5,29.1,23.8,0001.9,0023.95,0009.80,0007.96
2021-09-18 13:22:00,,0831.2,4.99,0.00,27.3,26.6,00.0,36.5,29.1,23.9,0002.2,0023.47,0009.69,0007.92
2021-09-18 13:23:00,,0831.2,5.00,0.00,27.3,26.7,00.0,36.5,29.1,23.5,0002.6,0022.76,0009.61,0007.88
2021-09-18 13:24:00,,0831.2,5.00,0.00,27.3,26.7,00.0,36.5,29.2,23.3,0002.6,0024.36,0009.58,0007.83
2021-09-18 13:25:00,,0831.2,5.00,0.00,27.3,26.7,00.0,36.5,29.2,23.3,0002.5,0024.60,0009.50,0007.75
2021-09-18 13:26:00,,0831.2,5.00,0.00,27.3,26.7,00.0,36.5,29.1,23.4,0002.5,0024.81,0009.33,0007.67
2021-09-18 13:27:00,,0831.2,5.00,0.00,27.3,26.7,00.0,36.5,29.1,23.2,0002.3,0024.64,0009.22,0007.59
2021-09-18 13:28:00,,0831.2,5.01,0.00,27.4,26.7,00.0,36.5,29.1,23.0,0002.3,0025.08,0009.24,0007.54
2021-09-18 13:29:00,,0831.2,4.99,0.00,27.4,26.7,00.0,36.5,29.1,23.0,0002.0,0023.93,0009.22,0007.48
2021-09-18 13:30:00,,0831.2,5.00,0.00,27.4,26.7,00.0,36.5,29.2,22.9,0001.9,0025.19,0009.28,0007.45
2021-09-18 13:31:00,,0831.2,4.99,0.00,27.4,26.7,00.0,36.5,29.2,22.9,0002.1,0026.73,0009.25,0007.39
2021-09-18 13:32:00,,0831.2,5.00,0.00,27.4,26.7,00.0,36.5,29.2,22.9,0002.0,0027.24,0009.21,0007.36
2021-09-18 13:33:00,,0831.2,5.01,0.00,27.4,26.8,00.0,36.5,29.3,22.9,0001.8,0027.51,0009.23,0007.32
2021-09-18 13:34:00,,0831.2,4.99,0.00,27.5,26.8,00.0,36.5,29.3,23.0,0002.1,0026.87,0009.22,0007.31
2021-09-18 13:35:00,,0831.2,5.01,0.00,27.5,26.8,00.0,36.5,29.3,23.0,0002.2,0026.33,0009.25,0007.28
2021-09-18 13:36:00,,0831.3,4.99,0.00,27.5,26.8,00.0,36.6,29.3,23.0,0002.3,0024.71,0009.22,0007.29
2021-09-18 13:37:00,,0831.3,5.01,0.00,27.5,26.8,00.0,36.6,29.4,22.9,0002.3,0024.17,0009.26,0007.33
2021-09-18 13:38:00,,0831.4,4.98,0.00,27.5,26.8,00.0,36.6,29.4,22.8,0002.4,0023.44,0009.36,0007.38
2021-09-18 13:39:00,,0831.4,4.99,0.00,27.6,26.8,00.0,36.6,29.4,22.7,0002.0,0022.53,0009.38,0007.42
2021-09-18 13:40:00,,0831.3,5.00,0.00,27.6,26.9,00.0,36.6,29.4,22.7,0002.3,0022.22,0009.36,0007.45
2021-09-18 13:41:00,,0831.3,5.00,0.00,27.6,26.9,00.0,36.6,29.4,22.8,0002.4,0021.04,0009.31,0007.46
2021-09-18 13:42:00,,0831.3,5.01,0.00,27.6,26.9,00.0,36.6,29.5,23.0,0002.3,0020.34,0009.29,0007.46
2021-09-18 13:43:00,,0831.3,5.01,0.00,27.6,26.9,00.0,36.6,29.5,22.9,0001.7,0019.07,0009.27,0007.47
2021-09-18 13:44:00,,0831.3,5.00,0.00,27.6,26.9,00.0,36.7,29.5,23.1,0001.8,0017.96,0009.25,0007.50
2021-09-18 13:45:00,,0831.3,5.00,0.00,27.7,26.9,00.0,36.7,29.5,23.1,0001.4,0017.92,0009.29,0007.53
2021-09-18 13:46:00,,0831.3,5.00,0.00,27.7,27.0,00.0,36.7,29.5,22.9,0001.1,0017.89,0009.34,0007.55
2021-09-18 13:47:00,,0831.2,5.00,0.00,27.7,27.0,00.0,36.7,29.5,23.0,0001.0,0018.24,0009.35,0007.56
2021-09-18 13:48:00,,0831.3,5.00,0.00,27.7,27.0,00.0,36.7,29.6,23.3,0001.0,0019.31,0009.37,0007.55
2021-09-18 13:49:00,,0831.3,4.99,0.00,27.7,27.0,00.0,36.7,29.6,23.2,0000.9,0020.07,0009.35,0007.53
2021-09-18 13:50:00,,0831.4,4.99,0.00,27.7,27.0,00.0,36.7,29.5,23.5,0001.2,0021.00,0009.29,0007.49
2021-09-18 13:51:00,,0831.3,5.00,0.00,27.7,27.0,00.0,36.7,29.6,23.4,0001.0,0022.19,0009.27,0007.45
2021-09-18 13:52:00,,0831.3,5.01,0.00,27.7,27.0,00.0,36.8,29.6,23.4,0001.2,0023.93,0009.28,0007.42
2021-09-18 13:53:00,,0831.2,4.99,0.00,27.8,27.1,00.0,36.8,29.6,23.3,0001.6,0024.45,0009.28,0007.41
2021-09-18 13:54:00,,0831.2,4.99,0.00,27.8,27.1,00.0,36.8,29.6,23.4,0001.9,0026.11,0009.33,0007.41
2021-09-18 13:55:00,,0831.2,5.01,0.00,27.8,27.1,00.0,36.8,29.7,23.1,0002.0,0027.20,0009.38,0007.40
2021-09-18 13:56:00,,0831.2,5.00,0.00,27.8,27.1,00.0,36.8,29.7,23.1,0002.2,0027.16,0009.42,0007.41
2021-09-18 13:57:00,,0831.2,5.00,0.00,27.8,27.2,00.0,36.8,29.7,23.5,0002.6,0027.44,0009.40,0007.42
2021-09-18 13:58:00,,0831.2,5.00,0.00,27.9,27.2,00.0,36.8,29.7,23.2,0002.8,0027.95,0009.37,0007.43
2021-09-18 13:59:00,,0831.2,5.00,0.00,27.9,27.2,00.0,36.9,29.8,23.5,0002.8,0028.72,0009.35,0007.42
